Tracking 25195 objects as of 21-Jan-2022
HD Live streaming from Space Station
objects crossing your sky now

PALAPA B4

Track PALAPA B4 now!
PALAPA B4 is classified as:


NORAD ID: 21964
Int'l Code: 1992-027A
Perigee: 35,860.4 km
Apogee: 35,906.7 km
Inclination: 11.6 °
Period: 1,440.7 minutes
Semi major axis: 42254 km
RCS: 12.5892 m2 (large)
Launch date: May 14, 1992
Source: Indonesia (INDO)
Launch site: AIR FORCE EASTERN TEST RANGE (AFETR)

Palapa B-4 was an Indonesian communications spacecraft launched by a Delta rocket.
aabbcc
Your satellite tracking list
Your tracking list is empty




NASA's NSSDC Master Catalog

Two Line Element Set (TLE):
1 21964U 92027A   22020.42926737 -.00000201  00000-0  00000-0 0  9992
2 21964  11.6405  28.1014 0005472   0.9227  43.2386  0.99952348 31116
Source of the keplerian elements: AFSPC